022  
AXUS43 KGID 230402  
MISGRI  
 
GID CWA HOURLY WEATHER ROUNDUP  
NATIONAL WEATHER SERVICE HASTINGS NE  
1000 PM CST SAT NOV 22 2014  
 
NOTE: "FAIR" INDICATES FEW OR NO CLOUDS BELOW 12,000 FEET WITH NO  
SIGNIFICANT WEATHER AND/OR OBSTRUCTIONS TO VISIBILITY.  
   
..SOUTH CENTRAL NEBRASKA
 
 
 
CITY SKY/WX TMP DP RH WIND PRES REMARKS  
GRAND ISLAND NOT AVBL  
HASTINGS CLOUDY 53 50 89 S10G21 29.54F FOG  
KEARNEY MOCLDY 45 39 81 SE13 29.55S  
ORD CLOUDY 36 29 75 S5 29.50F WCI 32  
YORK CLOUDY 52 50 93 SW16 29.56S  
AURORA CLOUDY 53 51 93 S16G26 29.55S  
LEXINGTON MOCLDY 51 31 45 S6 29.52S  
HOLDREGE MOCLDY 42 35 74 S7 29.53F  
HEBRON MOCLDY 56 51 84 S12G18 29.58F  
   
..NEBRASKA PANHANDLE
 
 
 
CITY SKY/WX TMP DP RH WIND PRES REMARKS  
CHADRON PTCLDY 40 31 70 CALM 29.45F  
ALLIANCE MOCLDY 39 29 67 SW9 29.48F WCI 33  
SCOTTSBLUFF PTCLDY 34 26 72 W3 29.51S  
SIDNEY CLOUDY 35 23 61 W12 29.53S WCI 27  
   
..WESTERN AND NORTH CENTRAL NEBRASKA
 
 
 
CITY SKY/WX TMP DP RH WIND PRES REMARKS  
VALENTINE CLOUDY 44 38 79 SW7 29.46F  
AINSWORTH CLOUDY 52 34 49 W12 29.49S  
ONEILL CLOUDY 49 35 56 SW13G18 29.48S  
BROKEN BOW CLOUDY 49 32 52 SW10 29.50F  
IMPERIAL CLOUDY 43 16 33 CALM 29.52F  
NORTH PLATTE CLOUDY 38 26 62 NW6 29.51F WCI 33  
MCCOOK MOCLDY 48 22 35 W5 29.51S  
   
..EASTERN NEBRASKA
 
 
 
CITY SKY/WX TMP DP RH WIND PRES REMARKS  
NORFOLK CLOUDY 48 47 96 S22 29.50S FOG  
SO SIOUX CITY CLOUDY 54 50 86 S18G24 29.52F  
TEKAMAH MOCLDY 53 49 86 S15 29.55F  
COLUMBUS MOCLDY 54 48 82 S13G22 29.55F  
ALBION MOCLDY 41 35 79 S3 29.52S  
OMAHA EPPLEY CLOUDY 54 52 93 SE14 29.59F  
OFFUTT AFB CLOUDY 56 52 87 S13 29.60S  
MILLARD CLOUDY 58 53 83 S6 29.59S  
LINCOLN CLOUDY 57 52 83 S16 29.58F  
NEBRASKA CITY CLOUDY 56 53 91 S21G26 29.63R  
BEATRICE CLOUDY 56 52 86 S16 29.60F  
FALLS CITY CLOUDY 55 51 86 S13G22 29.65F  
   
..NORTHERN KANSAS
 
 
 
CITY SKY/WX TMP DP RH WIND PRES REMARKS  
GOODLAND CLOUDY 38 22 52 CALM 29.50F  
HILL CITY MOCLDY 54 49 83 S22G30 29.53F  
NORTON CLEAR 48 43 81 S9 29.52F  
PHILLIPSBURG CLOUDY 57 52 82 S12G20 29.55F  
SMITH CENTER CLOUDY 54 50 87 S18 29.58S  
BELOIT CLOUDY 59 52 77 S20G26 29.56F  
HAYS CLOUDY 55 46 71 S25 29.56F  
RUSSELL CLOUDY 56 51 84 S17 29.56F  
CONCORDIA CLOUDY 58 54 86 S18G28 29.58F  
SALINA PTCLDY 56 51 84 S18G28 29.61F  
TOPEKA CLOUDY 57 52 83 S14G23 29.69F  
 
CLICK HERE TO GO TO PREVIOUS BULLETINS.

The Nexlab NE Page
The Nexlab KS Page Main Text Page